Date String (YYYY-MM-DD hh:mm:ss) UTC,Instrument flags,Ambient pressure (hPa),Sample flow (lpm),Bypass flow (lpm),Sample temperature (°C),Ambient temperature (°C),ASC tube jacket temperature (°C),LED temperature (°C),Box temperature (°C),Sample RH (%),Span deviation,Mass concentration (μg/m³),Mass concentration (μg/m³),Mass concentration (μg/m³)
DateTimeUTC,F1_M11,P_M11,Q1_M11,Q2_M11,T1_M11,T2_M11,T3_M11,T4_M11,T5_M11,U1_M11,ZSPAN_M11,X0_M11,X2_M11,X1_M11
2022-01-17 17:00:00,,0822.6,5.01,0.00,23.9,23.1,00.0,32.7,25.7,06.9,0000.0,0007.12,0002.58,0002.04
2022-01-17 17:01:00,,0822.7,5.00,0.00,23.9,23.2,00.0,32.7,25.7,07.4,0000.0,0007.08,0002.60,0002.04
2022-01-17 17:02:00,,0822.6,5.00,0.00,23.9,23.2,00.0,32.7,25.7,08.8,0000.0,0007.17,0002.67,0002.07
2022-01-17 17:03:00,,0822.6,5.01,0.00,23.9,23.2,00.0,32.7,25.7,09.1,0000.0,0007.33,0002.80,0002.15
2022-01-17 17:04:00,,0822.6,5.01,0.00,23.9,23.2,00.0,32.7,25.8,09.6,0000.0,0006.97,0002.87,0002.22
2022-01-17 17:05:00,,0822.7,5.00,0.00,23.9,23.2,00.0,32.8,25.9,08.2,0000.0,0006.57,0002.77,0002.13
2022-01-17 17:06:00,,0822.7,4.99,0.00,24.0,23.2,00.0,32.8,25.9,09.7,0000.0,0006.54,0002.71,0002.06
2022-01-17 17:07:00,,0822.7,5.01,0.00,24.0,23.3,00.0,32.8,25.9,09.9,0000.0,0005.75,0002.64,0002.02
2022-01-17 17:08:00,,0822.7,4.99,0.00,24.0,23.3,00.0,32.8,25.9,10.0,0000.0,0006.04,0002.69,0002.05
2022-01-17 17:09:00,,0822.7,5.00,0.00,24.0,23.3,00.0,32.8,25.9,10.1,0000.0,0006.49,0002.82,0002.12
2022-01-17 17:10:00,,0822.7,5.00,0.00,24.0,23.3,00.0,32.9,25.9,09.7,0000.0,0006.67,0003.05,0002.27
2022-01-17 17:11:00,,0822.7,4.99,0.00,24.0,23.3,00.0,32.9,25.9,09.1,0000.0,0006.35,0003.16,0002.40
2022-01-17 17:12:00,,0822.7,5.02,0.00,24.1,23.3,00.0,32.9,25.9,08.9,0000.0,0006.75,0003.21,0002.50
2022-01-17 17:13:00,,0822.7,5.00,0.00,24.1,23.3,00.0,32.9,26.0,08.7,0000.0,0007.66,0003.23,0002.54
2022-01-17 17:14:00,,0822.7,4.99,0.00,24.1,23.4,00.0,32.9,26.0,08.8,0000.0,0008.37,0003.21,0002.50
2022-01-17 17:15:00,,0822.7,5.00,0.00,24.1,23.4,00.0,32.9,26.0,09.0,0000.0,0008.47,0003.16,0002.45
2022-01-17 17:16:00,,0822.7,5.02,0.00,24.1,23.4,00.0,33.0,26.0,08.3,0000.0,0008.44,0003.14,0002.44
2022-01-17 17:17:00,,0822.7,4.99,0.00,24.1,23.4,00.0,33.0,26.0,07.7,0000.0,0008.38,0003.05,0002.35
2022-01-17 17:18:00,,0822.7,4.99,0.00,24.2,23.4,00.0,33.0,26.1,08.2,0000.0,0008.68,0002.97,0002.26
2022-01-17 17:19:00,,0822.8,5.01,0.00,24.2,23.5,00.0,33.0,26.1,08.7,0000.0,0008.73,0002.91,0002.18
2022-01-17 17:20:00,,0822.7,5.00,0.00,24.2,23.5,00.0,33.0,26.1,11.2,0000.0,0008.50,0002.94,0002.23
2022-01-17 17:21:00,,0822.7,5.00,0.00,24.2,23.5,00.0,33.0,26.1,11.6,0000.0,0008.73,0003.08,0002.38
2022-01-17 17:22:00,,0822.7,4.99,0.00,24.2,23.5,00.0,33.1,26.1,11.3,0000.0,0008.79,0003.22,0002.55
2022-01-17 17:23:00,,0822.7,5.01,0.00,24.2,23.5,00.0,33.1,26.1,09.3,0000.0,0008.74,0003.30,0002.65
2022-01-17 17:24:00,,0822.7,5.00,0.00,24.2,23.5,00.0,33.1,26.1,07.9,0000.0,0008.38,0003.30,0002.66
2022-01-17 17:25:00,,0822.7,5.01,0.00,24.3,23.5,00.0,33.1,26.1,07.4,0000.0,0007.77,0003.28,0002.65
2022-01-17 17:26:00,,0822.7,4.99,0.00,24.3,23.5,00.0,33.1,26.1,07.1,0000.0,0007.86,0003.26,0002.59
2022-01-17 17:27:00,,0822.7,5.01,0.00,24.3,23.5,00.0,33.1,26.2,07.0,0000.0,0007.73,0003.23,0002.52
2022-01-17 17:28:00,,0822.8,5.00,0.00,24.3,23.6,00.0,33.1,26.2,07.4,0000.0,0007.64,0003.24,0002.51
2022-01-17 17:29:00,,0822.7,4.99,0.00,24.3,23.6,00.0,33.2,26.2,07.4,0000.0,0006.97,0003.22,0002.50
2022-01-17 17:30:00,,0822.7,5.00,0.00,24.3,23.6,00.0,33.2,26.2,07.7,0000.0,0006.75,0003.18,0002.48
2022-01-17 17:31:00,,0822.7,5.02,0.00,24.3,23.6,00.0,33.2,26.2,08.3,0000.0,0006.32,0003.09,0002.38
2022-01-17 17:32:00,,0822.8,4.99,0.00,24.4,23.6,00.0,33.2,26.3,10.6,0000.0,0005.72,0002.93,0002.25
2022-01-17 17:33:00,,0822.7,4.99,0.00,24.4,23.6,00.0,33.2,26.3,11.2,0000.0,0005.73,0002.96,0002.28
2022-01-17 17:34:00,,0822.7,4.99,0.00,24.4,23.6,00.0,33.2,26.3,10.8,0000.0,0005.69,0002.92,0002.31
2022-01-17 17:35:00,,0822.7,5.00,0.00,24.4,23.7,00.0,33.2,26.3,11.6,0000.0,0005.97,0003.11,0002.49
2022-01-17 17:36:00,,0822.9,5.00,0.00,24.4,23.7,00.0,33.3,26.3,11.8,0000.0,0005.75,0003.23,0002.72
2022-01-17 17:37:00,,0822.9,4.99,0.00,24.4,23.7,00.0,33.3,26.3,12.5,0000.0,0005.53,0003.40,0002.99
2022-01-17 17:38:00,,0822.7,5.01,0.00,24.4,23.7,00.0,33.3,26.3,12.5,0000.0,0006.03,0003.61,0003.24
2022-01-17 17:39:00,,0822.8,4.98,0.00,24.5,23.7,00.0,33.3,26.4,12.0,0000.0,0006.44,0003.79,0003.41
2022-01-17 17:40:00,,0822.8,5.00,0.00,24.5,23.8,00.0,33.3,26.4,10.0,0000.0,0007.47,0003.93,0003.56
2022-01-17 17:41:00,,0822.8,5.01,0.00,24.5,23.8,00.0,33.3,26.4,09.5,0000.0,0008.05,0004.06,0003.67
2022-01-17 17:42:00,,0822.8,4.99,0.00,24.5,23.8,00.0,33.3,26.4,09.0,0000.0,0008.27,0004.14,0003.75
2022-01-17 17:43:00,,0822.8,5.01,0.00,24.5,23.8,00.0,33.4,26.5,07.5,0000.0,0008.23,0004.13,0003.74
2022-01-17 17:44:00,,0822.8,4.98,0.00,24.6,23.8,00.0,33.4,26.5,07.7,0000.0,0008.25,0004.00,0003.64
2022-01-17 17:45:00,,0822.7,5.01,0.00,24.6,23.8,00.0,33.4,26.5,08.1,0000.0,0008.23,0003.93,0003.57
2022-01-17 17:46:00,,0822.7,5.00,0.00,24.6,23.9,00.0,33.4,26.5,08.2,0000.0,0008.16,0003.87,0003.50
2022-01-17 17:47:00,,0822.6,5.00,0.00,24.6,23.9,00.0,33.4,26.5,08.8,0000.0,0008.27,0003.83,0003.45
2022-01-17 17:48:00,,0822.6,5.00,0.00,24.6,23.9,00.0,33.5,26.5,09.1,0000.0,0008.18,0003.77,0003.41
2022-01-17 17:49:00,,0822.6,4.99,0.00,24.6,23.9,00.0,33.5,26.6,09.3,0000.0,0008.33,0003.70,0003.34
2022-01-17 17:50:00,,0822.6,5.00,0.00,24.7,24.0,00.0,33.5,26.6,09.5,0000.0,0009.21,0003.63,0003.29
2022-01-17 17:51:00,,0822.7,4.99,0.00,24.7,24.0,00.0,33.5,26.6,10.2,0000.0,0009.01,0003.59,0003.26
2022-01-17 17:52:00,,0822.7,5.01,0.00,24.7,24.0,00.0,33.5,26.6,11.5,0000.0,0008.76,0003.65,0003.30
2022-01-17 17:53:00,,0822.8,4.99,0.00,24.7,24.0,00.0,33.5,26.6,11.5,0000.0,0008.94,0003.72,0003.35
2022-01-17 17:54:00,,0822.8,5.01,0.00,24.7,24.0,00.0,33.6,26.6,11.3,0000.0,0009.29,0003.88,0003.46
2022-01-17 17:55:00,,0822.8,5.00,0.00,24.7,24.0,00.0,33.6,26.6,11.5,0000.0,0009.73,0004.05,0003.60
2022-01-17 17:56:00,,0822.9,5.00,0.00,24.7,24.0,00.0,33.6,26.6,11.7,0000.0,0010.66,0004.21,0003.71
2022-01-17 17:57:00,,0822.8,5.01,0.00,24.7,23.9,00.0,33.6,26.6,11.8,0000.0,0011.12,0004.36,0003.85
2022-01-17 17:58:00,,0822.7,4.98,0.00,24.7,23.9,00.0,33.6,26.6,11.8,0000.0,0011.16,0004.50,0003.97
2022-01-17 17:59:00,,0822.8,5.01,0.00,24.7,24.0,00.0,33.6,26.6,11.8,0000.0,0011.41,0004.65,0004.07
